Vitoria, Spain

11:21 AM CET on January 16, 2018 (GMT +0100)
Foronda

Weather History for LEVT - May, 2013

Change the Weather History Date:

Friday, May 31, 2013

  Actual Average Record
Temperature  
Mean Temperature 48 °F -  
Max Temperature 51 °F 76 °F 87 °F (1999)
Min Temperature 46 °F 50 °F 42 °F (2007)
Degree Days  
Heating Degree Days 16    
Moisture  
Dew Point 45 °F    
Average Humidity 87    
Maximum Humidity 94    
Minimum Humidity 82    
Precipitation  
Precipitation 0.00 in - - ()
Sea Level Pressure  
Sea Level Pressure 30.16 in    
Wind  
Wind Speed 11 mph ()    
Max Wind Speed 23 mph    
Max Gust Speed 36 mph    
Visibility 5.2 miles    
Events Rain    
Averages and records for this station are not official NWS values.
T = Trace of Precipitation, MM = Missing Value Source: Averaged Metar Reports

Daily Weather History Graph

Daily Weather History Graph

Search for Another Location

Airport or City:

Trip Planner

Search our weather history database for the weather conditions in past years. The results will help you decide how hot, cold, wet, or windy it might be!

Date:

Astronomy

May. 31, 2013 Rise Set
Actual Time 6:35 AM CEST 9:42 PM CEST
Civil Twilight 6:01 AM CEST 10:16 PM CEST
Nautical Twilight 5:17 AM CEST 11:00 PM CEST
Astronomical Twilight 4:24 AM CEST 11:53 PM CEST
Moon 2:02 AM CEST (5/31) 1:41 PM CEST (5/31)
Length of Visible Light 16h 15m
Length of Day
15h 06m
Waning Gibbous, 54% of the Moon is Illuminated
May 31
Waning Gibbous
May 31
Last Quarter
Jun 8
New
Jun 16
First Quarter
Jun 23
Full

Hourly Weather History & Observations

Time (CEST) Temp. Windchill Dew Point Humidity Pressure Visibility Wind Dir Wind Speed Gust Speed Precip Events Conditions
12:00 AM 48.2 °F - 42.8 °F 82% 30.15 in 6.2 mi NNW 10.4 mph - N/A   Scattered Clouds
12:30 AM 48.2 °F - 42.8 °F 82% 30.12 in 6.2 mi NNW 4.6 mph - N/A   Scattered Clouds
1:00 AM 46.4 °F 45.2 °F 42.8 °F 87% 30.12 in 6.2 mi SSE 3.5 mph - N/A   Scattered Clouds
1:30 AM 48.2 °F - 42.8 °F 82% 30.12 in 6.2 mi Variable 4.6 mph - N/A   Scattered Clouds
2:00 AM 48.2 °F - 42.8 °F 82% 30.12 in 6.2 mi NW 8.1 mph 19.6 mph N/A   Scattered Clouds
2:30 AM 48.2 °F - 42.8 °F 82% 30.12 in 6.2 mi NW 11.5 mph - N/A   Scattered Clouds
3:00 AM 48.2 °F - 42.8 °F 82% 30.12 in 6.2 mi NW 13.8 mph - N/A   Mostly Cloudy
3:30 AM 48.2 °F - 42.8 °F 82% 30.12 in 6.2 mi NW 6.9 mph - N/A   Mostly Cloudy
4:00 AM 48.2 °F - 42.8 °F 82% 30.12 in 6.2 mi WNW 9.2 mph - N/A   Mostly Cloudy
4:30 AM 48.2 °F - 42.8 °F 82% 30.09 in 6.2 mi NW 10.4 mph 23.0 mph N/A   Mostly Cloudy
5:00 AM 48.2 °F - 42.8 °F 82% 30.09 in 6.2 mi NW 13.8 mph 25.3 mph N/A   Mostly Cloudy
5:30 AM 48.2 °F - 42.8 °F 82% 30.09 in 6.2 mi WNW 16.1 mph 27.6 mph N/A   Mostly Cloudy
6:00 AM 48.2 °F - 42.8 °F 82% 30.09 in 6.2 mi WNW 15.0 mph 26.5 mph N/A   Scattered Clouds
6:30 AM 48.2 °F - 42.8 °F 82% 30.09 in 6.2 mi NW 15.0 mph - N/A   Mostly Cloudy
7:00 AM 48.2 °F - 42.8 °F 82% 30.09 in 6.2 mi NW 16.1 mph - N/A   Mostly Cloudy
7:30 AM 48.2 °F - 42.8 °F 82% 30.12 in 6.2 mi NW 15.0 mph 26.5 mph N/A   Mostly Cloudy
8:00 AM 48.2 °F - 42.8 °F 82% 30.12 in 6.2 mi NW 15.0 mph - N/A   Mostly Cloudy
8:30 AM 48.2 °F - 42.8 °F 82% 30.12 in 6.2 mi NW 11.5 mph - N/A   Mostly Cloudy
9:00 AM 48.2 °F - 42.8 °F 82% 30.12 in 6.2 mi NW 16.1 mph - N/A   Mostly Cloudy
9:30 AM 48.2 °F - 42.8 °F 82% 30.12 in 5.6 mi NW 12.7 mph - N/A Rain Light Rain
10:00 AM 48.2 °F - 44.6 °F 87% 30.12 in 5.6 mi NNW 12.7 mph - N/A Rain Light Rain
10:30 AM 48.2 °F - 44.6 °F 87% 30.12 in 5.6 mi NW 13.8 mph - N/A   Mostly Cloudy
11:00 AM 48.2 °F - 44.6 °F 87% 30.15 in 5.6 mi NNW 15.0 mph 31.1 mph N/A   Overcast
11:30 AM 48.2 °F - 44.6 °F 87% 30.15 in 3.7 mi NNW 20.7 mph 35.7 mph N/A Rain Light Rain
12:00 PM 50.0 °F - 46.4 °F 87% 30.15 in 3.7 mi NNW 23.0 mph 35.7 mph N/A Rain Light Rain
12:30 PM 50.0 °F - 48.2 °F 94% 30.15 in 3.7 mi NNW 21.9 mph - N/A   Mostly Cloudy
1:00 PM 50.0 °F - 46.4 °F 87% 30.15 in 3.7 mi NNW 20.7 mph 34.5 mph N/A   Mostly Cloudy
1:30 PM 50.0 °F - 46.4 °F 87% 30.15 in 5.0 mi NW 19.6 mph 31.1 mph N/A   Mostly Cloudy
2:00 PM 51.8 °F - 48.2 °F 88% 30.18 in 5.0 mi NNW 19.6 mph 31.1 mph N/A   Mostly Cloudy
2:30 PM 50.0 °F - 46.4 °F 87% 30.18 in 5.0 mi NW 16.1 mph 28.8 mph N/A   Mostly Cloudy
3:00 PM 50.0 °F - 46.4 °F 87% 30.18 in 5.0 mi NW 13.8 mph - N/A   Overcast
3:30 PM 50.0 °F - 46.4 °F 87% 30.21 in 3.1 mi WNW 10.4 mph - N/A Rain Light Rain
4:00 PM 50.0 °F - 48.2 °F 94% 30.21 in 3.7 mi WNW 16.1 mph - N/A Rain Light Rain
4:30 PM 50.0 °F - 46.4 °F 87% 30.21 in 3.1 mi NW 15.0 mph - N/A Rain Light Rain
5:00 PM 50.0 °F - 48.2 °F 94% 30.21 in 3.7 mi NW 13.8 mph - N/A   Overcast
5:30 PM 50.0 °F - 48.2 °F 94% 30.21 in 3.7 mi NW 10.4 mph - N/A Rain Light Rain
6:00 PM 50.0 °F - 48.2 °F 94% 30.21 in 3.7 mi WNW 10.4 mph - N/A Rain Light Rain
6:30 PM 50.0 °F - 48.2 °F 94% 30.21 in 4.3 mi NW 11.5 mph - N/A   Overcast
7:00 PM 51.8 °F - 48.2 °F 88% 30.21 in 5.6 mi NW 9.2 mph - N/A   Overcast
7:30 PM 50.0 °F - 48.2 °F 94% 30.21 in 5.6 mi NW 10.4 mph - N/A   Overcast
8:00 PM 50.0 °F - 48.2 °F 94% 30.21 in 5.0 mi NW 9.2 mph - N/A Rain Light Rain
8:30 PM 50.0 °F - 48.2 °F 94% 30.24 in 5.6 mi NNW 9.2 mph - N/A   Mostly Cloudy
9:00 PM 50.0 °F - 48.2 °F 94% 30.24 in 5.0 mi NW 11.5 mph - N/A   Mostly Cloudy
9:30 PM 50.0 °F - 48.2 °F 94% 30.24 in 5.0 mi NW 11.5 mph - N/A Rain Light Rain
10:00 PM 50.0 °F - 48.2 °F 94% 30.24 in 5.0 mi NW 12.7 mph - N/A   Mostly Cloudy
10:30 PM 50.0 °F - 46.4 °F 87% 30.24 in 5.0 mi NW 12.7 mph - N/A   Mostly Cloudy
11:00 PM 50.0 °F - 46.4 °F 87% 30.27 in 4.3 mi NW 11.5 mph - N/A Rain Light Rain
11:30 PM 50.0 °F - 46.4 °F 87% 30.27 in 5.0 mi NW 11.5 mph - N/A   Mostly Cloudy